sat.trackr.live / text

‹ back to catalog

AETHER-8

NORAD 67379 · 2026-004S

PAYLOAD ACTIVE UNKNOWN

§ Identity

Operator
Country
CA
Launch date
2026-01-11
Launch site
AFWTR
Launch vehicle
Mass (kg)
RCS (m²)

External: N2YO · Heavens-Above · Gunter

§ Orbital elements

Epoch: 2026-05-25T04:00:03.998880Z

Period
96.87 min
Inclination
97.8006°
Eccentricity
0.0002188
Mean motion
14.86544374 rev/d
Perigee alt
607.2 km
Apogee alt
610.3 km
Semi-major
6,986.9 km
B*
-6.1789e-3
RAAN
144.1219°
Arg perigee
204.7807°
Mean anomaly
68.2154°
Rev number
596

§ Raw data

AETHER-81 67379U 26004S   26145.16671295 -.00054320  00000+0 -61789-2 0  99972 67379  97.8006 144.1219 0002188 204.7807  68.2154 14.86544374  5965

JSON: /api/v1/satellites/67379 · /tle

For live sub-satellite position, see the globe view (requires WebGL).

§ Visibility from observer

Set your observer location to see the next 7 days of passes ≥ 10°. The values pass through the URL so the page stays shareable.

No JS? Fill the form by hand. The geolocation button needs JavaScript.